Location: Hannover
(52.3723°N, 9.7339°E)
Time: 12:27:49
(UTC+01:00)

ISS - Visible Passes

Search period start: 24 November 2017 00:00
Search period end: 04 December 2017 00:00
Orbit: 402 x 407 km, 51.6° (Epoch: 24 November)

Date Brightness Start Highest point End Pass type
(mag) Time Alt. Az. Time Alt. Az. Time Alt. Az.
28 Nov -1.3 18:17:11 10° SSE 18:17:50 12° SSE 18:17:50 12° SSE visible
29 Nov -1.3 18:59:24 10° SW 19:00:25 17° SSW 19:00:25 17° SSW visible
30 Nov -2.2 18:07:31 10° SSW 18:10:08 22° SSE 18:10:15 22° SE visible
01 Dec -1.6 17:16:01 10° S 17:17:58 15° SE 17:19:55 10° ESE visible
01 Dec -2.2 18:50:42 10° WSW 18:52:40 30° SW 18:52:40 30° SW visible
02 Dec -2.9 17:58:32 10° SW 18:01:35 36° SSE 18:02:23 30° ESE visible
02 Dec -0.5 19:34:34 10° W 19:35:02 13° W 19:35:02 13° W visible
03 Dec -2.2 17:06:33 10° SSW 17:09:18 25° SSE 17:12:03 10° E visible
03 Dec -2.9 18:42:11 10° WSW 18:44:42 47° SW 18:44:42 47° SW visible
